Find Starlink 3988

NORAD ID: 52625 Int'l Des: 2022-052 Owner: SPXS Country: US Constellation: starlink operational
LEOCIRCULAR

当前视图

正在加载3D地球...

About Starlink 3988

Starlink 3988 (NORAD 52625) is a starlink constellation satellite (v1.5) launched May 14, 2022 by SPXS of US. It operates in LEO, CIRCULAR orbit with a mass of 297.00 kg.

关于 Starlink 3988

正在加载描述...

即将过境

Passes for default location (London). Set your location on the main map for personalized predictions.

高度历史

Loading altitude history...

两行轨道根数

1 52625U 22052AD 26194.83335647 -.00000654 00000-0 -17341-4 0 9999
2 52625 53.1594 62.1829 0002402 70.6815 63.3417 15.16573171 5323
Epoch: Jul 13, 2026 • Age: 8 hours

当前状态

高度 518.0 km
远地点 / 近地点 N/A
速度 7.61 km/s
星下点 -2.20°S, 111.59°W
发射日期 May 14, 2022
运行时间 4.1 years
类型 internet

技术详情

分类 Payload
质量 297.00 kg
干质量 275.00 kg
总质量 297.00 kg
长度 0.20 m
直径 2.80 m
跨度 9.00 m
形状 Box + pan
制造商 SPXS
平台类型 Starlink
阶段状态 In Orbit
所有者/国家 SPXS/US

Most Searched